[[{"header":{"parameterUnit":"m.s-1","parameterCategory":2,"la1":30.2991,"la2":30.254,"lo1":-89.0895,"lo2":-89.0444,"dy":0.0017,"dx":0.0017,"nx":28,"ny":28,"refTime":"2023-07-30T09:00:00:Z","depth":"0","parameterNumber":2,"parameterNumberName":"U-component_of_CURRENTS"},"data":[0,0,0,0,0,0,0,0,0,0,0,0,0,0,0,0,0,0,0,0,0,0,0,0,0,0,0,0,0,0,0,0,0,0,0,0,0,0,0,0,0,0,0,0,0,0,0,0,0,0,0,0,0,0,0,0,0,0,-0.3876,-0.3881,0,-0.415,-0.4152,-0.4153,-0.4261,-0.4262,-0.4263,-0.4264,-0.4294,-0.4293,-0.4293,0,0,0,0,0,0,0,0,0,0,0,0,0,-0.3577,-0.358,-0.3876,-0.3881,-0.3886,-0.415,-0.4152,-0.4154,-0.4261,-0.4262,-0.4264,-0.4265,-0.4294,-0.4293,-0.4293,0,0,0,0,0,0,0,0,0,0,0,0,0,-0.3746,-0.358,-0.3875,-0.3986,-0.4,-0.415,-0.4152,-0.4154,-0.4261,-0.4262,-0.4264,-0.4265,-0.4294,-0.4293,-0.4293,-0.4259,0,0,-0.4292,-0.4292,0,0,0,0,0,0,0,0,-0.3736,-0.3754,-0.3964,-0.3979,-0.3995,-0.419,-0.4059,-0.4184,-0.426,-0.4141,-0.4264,-0.4266,-0.4248,-0.4251,-0.4275,-0.4261,-0.4262,-0.4292,-0.4292,-0.4292,-0.4292,0,0,0,0,0,0,0,-0.3724,-0.3744,-0.3965,-0.397,-0.3989,-0.4069,-0.4091,-0.4083,-0.4162,-0.4152,-0.4165,-0.4226,-0.4252,-0.4275,-0.4276,-0.4262,-0.4292,-0.4292,-0.4292,-0.4291,-0.4126,-0.4122,0,0,0,0,0,0,-0.3721,-0.3732,-0.3956,-0.3975,-0.3889,-0.4074,-0.4098,-0.411,-0.4168,-0.4187,-0.4225,-0.4231,-0.4275,-0.4277,-0.4277,-0.4183,-0.4292,-0.4291,-0.4291,-0.413,-0.4125,-0.4121,0,0,0,0,0,0,-0.3712,-0.3736,-0.3946,-0.3878,-0.3913,-0.4078,-0.4091,-0.4115,-0.4156,-0.423,-0.424,-0.4246,-0.4276,-0.4278,-0.4236,-0.4187,-0.4291,-0.4291,-0.4135,-0.4129,-0.4123,-0.4029,0,0,0,0,0,0,-0.3701,-0.3729,-0.3726,-0.3876,-0.3918,-0.4028,-0.4092,-0.412,-0.4201,-0.421,-0.425,-0.4255,-0.4278,-0.4236,-0.4236,-0.4188,-0.4291,-0.414,-0.4132,-0.4125,-0.4037,-0.402,-0.4006,0,0,0,0,0,-0.3688,-0.3683,-0.3722,-0.3752,-0.3909,-0.403,-0.4054,-0.4167,-0.42,-0.4207,-0.4206,-0.4254,-0.4186,-0.4233,-0.4233,-0.4184,-0.4144,-0.4135,-0.4125,-0.4045,-0.4024,-0.4006,0,0,0,0,0,0,-0.3571,-0.3701,-0.3745,-0.3784,-0.3899,-0.4056,-0.4081,-0.4162,-0.4175,-0.4167,-0.4211,-0.4212,-0.417,-0.4168,-0.4219,-0.4105,-0.4168,-0.4158,-0.4106,-0.4087,-0.4071,-0.4063,-0.429,0,0,0,0,0,-0.3541,-0.3559,-0.3711,-0.3747,-0.3783,-0.3924,-0.3987,-0.407,-0.4127,-0.4139,-0.4169,-0.4156,-0.4127,-0.4102,-0.4099,-0.4026,-0.3994,-0.3986,-0.397,-0.3957,-0.3944,-0.3876,-0.3854,-0.4089,-0.409,-0.409,0,0,-0.3526,-0.3591,-0.3614,-0.3723,-0.38,-0.3819,-0.3957,-0.4047,-0.4045,-0.413,-0.4091,-0.4125,-0.4102,-0.4036,-0.4011,-0.4026,-0.3851,-0.3945,-0.3935,-0.3929,-0.3864,-0.3841,-0.3821,-0.4083,-0.4084,-0.4085,0,0,-0.346,-0.353,-0.3497,-0.3564,-0.3687,-0.3768,-0.3788,-0.3927,-0.3958,-0.3943,-0.3995,-0.3975,-0.3945,-0.3919,-0.3893,-0.377,-0.3795,-0.3783,-0.3673,-0.3606,-0.3587,-0.3571,-0.3419,-0.339,-0.3747,-0.3746,-0.3746,0,-0.3426,-0.3414,-0.3519,-0.3492,-0.3544,-0.3721,-0.3703,-0.3747,-0.3859,-0.3853,-0.39,-0.3853,-0.3865,-0.3756,-0.3734,-0.3735,-0.3695,-0.3759,-0.3589,-0.3573,-0.3557,-0.3407,-0.3376,-0.3741,-0.3741,-0.3742,-0.3742,0,-0.3306,-0.3321,-0.3312,-0.3313,-0.3364,-0.3409,-0.3495,-0.3523,-0.3584,-0.3638,-0.3597,-0.362,-0.3593,-0.359,-0.363,-0.3527,-0.3528,-0.3607,-0.3651,-0.3528,-0.3375,-0.3345,-0.3733,-0.3735,-0.3736,-0.3738,0,0,-0.3156,-0.3218,-0.3209,-0.321,-0.329,-0.3328,-0.3287,-0.3322,-0.3303,-0.3354,-0.3302,-0.3275,-0.3362,-0.3338,-0.3399,-0.3347,-0.3199,-0.3441,-0.344,-0.3309,-0.2998,-0.2895,-0.2852,-0.3287,-0.3283,-0.328,-0.2907,0,-0.3034,-0.2977,-0.3029,-0.2992,-0.2983,-0.3099,-0.3061,-0.3103,-0.3147,-0.3137,-0.3148,-0.3127,-0.3238,-0.3248,-0.3215,-0.3255,-0.313,-0.3289,-0.312,-0.3111,-0.3054,-0.2818,-0.2729,-0.2385,-0.2878,-0.2873,-0.2869,0,-0.2862,-0.2864,-0.2811,-0.2868,-0.2866,-0.2849,-0.2857,-0.2857,-0.2867,-0.2898,-0.2886,-0.2951,-0.289,-0.3016,-0.2906,-0.3024,-0.2984,-0.2977,-0.2964,-0.2889,-0.2953,-0.2599,-0.2312,-0.234,-0.2823,-0.2826,-0.283,0,-0.2705,-0.2709,-0.2681,-0.2695,-0.2756,-0.2726,-0.2745,-0.2764,-0.2776,-0.2747,-0.2745,-0.2716,-0.2699,-0.2671,-0.2697,-0.2802,-0.2562,-0.2684,-0.2491,-0.248,-0.2375,-0.2362,-0.2116,-0.2516,-0.2517,-0.2518,-0.2519,0,-0.2564,-0.2525,-0.2608,-0.2591,-0.2544,-0.2605,-0.2571,-0.2579,-0.2605,-0.2567,-0.2628,-0.2566,-0.2636,-0.2554,-0.2572,-0.2408,-0.2426,-0.239,-0.2364,-0.2327,-0.2315,-0.2321,-0.2398,-0.2504,-0.2507,-0.251,-0.2512,0,-0.2372,-0.2451,-0.2412,-0.2461,-0.248,-0.2424,-0.2495,-0.2495,-0.25,-0.2443,-0.2423,-0.2424,-0.2294,-0.2297,-0.2203,-0.22,-0.2031,-0.2004,-0.1913,-0.1883,-0.1766,-0.1842,-0.1548,-0.1507,-0.1691,-0.1686,-0.1681,0,-0.2256,-0.2233,-0.2296,-0.2319,-0.2336,-0.2326,-0.2364,-0.2422,-0.2413,-0.2328,-0.2269,-0.2144,-0.1986,-0.1778,-0.1771,-0.1621,-0.1758,-0.1461,-0.1639,-0.1652,-0.1719,-0.1816,-0.1814,-0.1412,-0.1406,-0.1401,-0.1397,0,-0.2028,-0.2077,-0.208,-0.2157,-0.2197,-0.2181,-0.2193,-0.218,-0.22,-0.2101,-0.1863,-0.1699,-0.1548,-0.136,-0.1261,-0.1225,-0.1453,-0.1352,-0.14,-0.1465,-0.1516,-0.1502,-0.1728,-0.1353,-0.1357,-0.136,-0.1363,-0.1365,-0.1858,-0.1832,-0.1925,-0.1981,-0.2027,-0.1958,-0.1862,-0.186,-0.1723,-0.1499,-0.1452,-0.1137,-0.1022,-0.0864,-0.0882,-0.094,-0.1063,-0.0973,-0.104,-0.112,-0.1148,-0.1225,-0.0842,-0.0843,-0.0844,-0.0846,-0.0847,0,-0.1652,-0.1715,-0.1771,-0.1792,-0.1754,-0.1813,-0.1722,-0.1583,-0.1322,-0.1169,-0.0885,-0.0541,-0.043,-0.0518,-0.0647,-0.0673,-0.074,-0.0704,-0.0855,-0.0855,-0.0911,-0.0976,-0.0564,-0.0564,-0.0564,-0.0564,-0.0564,-0.0564,-0.1572,-0.1595,-0.1673,-0.1566,-0.1528,-0.1328,-0.1201,-0.1017,-0.0865,-0.0525,-0.0319,-0.0181,-0.0225,-0.0428,-0.0636,-0.0653,-0.0728,-0.0656,-0.0731,-0.0853,-0.0888,-0.0921,-0.0998,-0.0598,-0.0598,-0.0651,-0.0652,-0.0652]},{"header":{"parameterUnit":"m.s-1","parameterCategory":2,"la1":30.2991,"la2":30.254,"lo1":-89.0895,"lo2":-89.0444,"dy":0.0017,"dx":0.0017,"nx":28,"ny":28,"refTime":"2023-07-30T09:00:00:Z","depth":"0","parameterNumber":3,"parameterNumberName":"V-component_of_CURRENTS"},"data":[0,0,0,0,0,0,0,0,0,0,0,0,0,0,0,0,0,0,0,0,0,0,0,0,0,0,0,0,0,0,0,0,0,0,0,0,0,0,0,0,0,0,0,0,0,0,0,0,0,0,0,0,0,0,0,0,0,0,-0.0536,-0.0533,0,-0.0271,-0.0268,-0.0266,-0.0096,-0.0095,-0.0093,-0.0092,0.0187,0.0193,0.0199,0,0,0,0,0,0,0,0,0,0,0,0,0,-0.0802,-0.0799,-0.0536,-0.0532,-0.0529,-0.0271,-0.0268,-0.0265,-0.0096,-0.0095,-0.0093,-0.0091,0.0185,0.0192,0.0199,0,0,0,0,0,0,0,0,0,0,0,0,0,-0.0632,-0.0798,-0.0537,-0.041,-0.0395,-0.0272,-0.0268,-0.0264,-0.0097,-0.0095,-0.0092,-0.009,0.0182,0.0191,0.02,0.0212,0,0,0.0228,0.0232,0,0,0,0,0,0,0,0,-0.0642,-0.0623,-0.0432,-0.0418,-0.0402,-0.021,-0.0259,-0.0103,-0.0097,-0.0216,-0.0092,-0.0089,0.0057,0.0076,0.0114,0.0225,0.0237,0.0229,0.0234,0.0238,0.0241,0,0,0,0,0,0,0,-0.0654,-0.0633,-0.0436,-0.0428,-0.041,-0.0333,-0.0308,-0.0229,-0.0099,-0.0205,-0.0191,-0.0154,0.0065,0.0105,0.0122,0.0241,0.0228,0.0236,0.0242,0.0245,0.0414,0.0413,0,0,0,0,0,0,-0.0684,-0.0645,-0.0444,-0.0428,-0.0513,-0.0331,-0.0302,-0.0278,-0.0099,-0.0068,-0.0156,-0.0147,0.0088,0.0111,0.0132,0.0163,0.0238,0.0246,0.0252,0.0414,0.0413,0.0412,0,0,0,0,0,0,-0.0691,-0.0669,-0.0455,-0.0525,-0.0492,-0.0329,-0.0302,-0.0274,-0.0221,-0.0061,-0.0031,-0.013,0.0091,0.012,0.0193,0.0175,0.025,0.0259,0.0416,0.0414,0.0413,0.0219,0,0,0,0,0,0,-0.07,-0.0674,-0.0675,-0.0528,-0.0489,-0.0379,-0.0303,-0.027,-0.02,-0.0185,-0.003,-0.0002,0.0095,0.0178,0.0202,0.0188,0.0266,0.0417,0.0415,0.0413,0.0227,0.0211,0.0198,0,0,0,0,0,-0.0711,-0.0711,-0.0677,-0.0652,-0.0493,-0.0378,-0.0352,-0.0231,-0.0201,-0.0178,-0.0092,-0.0006,0.0184,0.0184,0.0212,0.0201,0.0418,0.0415,0.0413,0.0233,0.0214,0.0198,0,0,0,0,0,0,-0.082,-0.0689,-0.0649,-0.0608,-0.0504,-0.0348,-0.0316,-0.0246,-0.0161,-0.0154,-0.0022,0.0012,0.0073,0.0158,0.0154,0.0245,0.0317,0.032,0.017,0.0154,0.0139,0.0084,0.0273,0,0,0,0,0,-0.0852,-0.0822,-0.068,-0.0652,-0.0607,-0.0474,-0.0417,-0.0336,-0.0234,-0.0192,-0.0093,0.0005,0.0082,0.0132,0.0222,0.0263,0.0342,0.0276,0.0262,0.0249,0.0223,0.031,0.03,0.0405,0.0405,0.0405,0,0,-0.0888,-0.0811,-0.0794,-0.0675,-0.0591,-0.0541,-0.0435,-0.0354,-0.0326,-0.018,-0.0132,-0.0039,0.0082,0.0133,0.0168,0.0203,0.0264,0.0246,0.0234,0.0215,0.0306,0.0296,0.0287,0.0404,0.0404,0.0404,0,0,-0.0933,-0.088,-0.0863,-0.0792,-0.0669,-0.0593,-0.0579,-0.0438,-0.0387,-0.0326,-0.0227,-0.0166,-0.0026,0.0038,0.0091,0.0046,0.0184,0.0095,-0.0021,0.0062,0.0053,0.0047,0.014,0.0143,0.0087,0.0087,0.0086,0,-0.0979,-0.0942,-0.0841,-0.0804,-0.0758,-0.0632,-0.0608,-0.0549,-0.0408,-0.0376,-0.0331,-0.0165,-0.0082,-0.0027,-0.0056,0.001,0.0093,0.003,0.004,0.0035,0.0032,0.013,0.0136,0.0077,0.0078,0.0079,0.008,0,-0.0994,-0.0978,-0.0965,-0.0893,-0.0835,-0.0794,-0.0694,-0.0652,-0.059,-0.0514,-0.0439,-0.0334,-0.0231,-0.0202,-0.0151,-0.0132,-0.0053,0.0009,0.0074,0.0009,0.0117,0.0127,0.0063,0.0067,0.007,0.0072,0,0,-0.1049,-0.0992,-0.0987,-0.0971,-0.0881,-0.082,-0.0813,-0.0737,-0.0704,-0.062,-0.0566,-0.0504,-0.0434,-0.0375,-0.0289,-0.0248,-0.0224,-0.0155,-0.0146,-0.0082,-0.0021,0.0018,0.0034,-0.0149,-0.0148,-0.0148,0.0065,0,-0.1087,-0.1077,-0.1029,-0.1021,-0.1002,-0.0919,-0.0905,-0.0828,-0.0753,-0.0675,-0.0597,-0.0502,-0.0499,-0.0431,-0.0414,-0.0236,-0.0207,-0.0287,0.0049,0.0058,0.0085,0.0042,0.0106,0.0299,0.0076,0.0078,0.0079,0,-0.1098,-0.1091,-0.1112,-0.107,-0.105,-0.1033,-0.0962,-0.0924,-0.082,-0.0753,-0.069,-0.0582,-0.0524,-0.049,-0.0317,-0.0356,-0.0241,-0.0127,-0.0113,-0.0009,0.0114,0.0331,0.0327,0.0438,0.0096,0.0094,0.0093,0,-0.1154,-0.1134,-0.1166,-0.1153,-0.1097,-0.1086,-0.1041,-0.0949,-0.088,-0.0783,-0.0695,-0.062,-0.0505,-0.0403,-0.0229,-0.0247,-0.0002,0.0032,0.0167,0.0175,0.0325,0.0343,0.0448,0.0125,0.0125,0.0124,0.0123,0,-0.1202,-0.1204,-0.1195,-0.1202,-0.1194,-0.1127,-0.1082,-0.1026,-0.0901,-0.0756,-0.0733,-0.0591,-0.0476,-0.0315,-0.021,0.0008,0.0018,0.013,0.022,0.0261,0.027,0.0453,0.0489,0.0132,0.013,0.0129,0.0127,0,-0.1231,-0.1251,-0.1256,-0.1233,-0.1224,-0.12,-0.1084,-0.0987,-0.092,-0.0722,-0.0673,-0.0528,-0.0328,-0.0214,0.0024,0.0088,0.0365,0.0341,0.0372,0.0456,0.0644,0.0667,0.0862,0.0971,0.0523,0.0525,0.0527,0,-0.1234,-0.126,-0.1273,-0.1265,-0.1253,-0.1205,-0.1113,-0.1006,-0.0841,-0.0633,-0.0473,-0.0313,-0.0094,0.0175,0.0274,0.0453,0.0514,0.0619,0.0553,0.0641,0.0736,0.0731,0.0809,0.0703,0.0706,0.0708,0.071,0,-0.1221,-0.1249,-0.1267,-0.126,-0.1196,-0.1052,-0.0892,-0.0774,-0.0549,-0.0383,-0.0053,0.01,0.0267,0.0463,0.0561,0.0664,0.0714,0.0674,0.0781,0.0868,0.0863,0.1018,0.058,0.0732,0.073,0.0728,0.0727,0.0726,-0.1197,-0.1219,-0.1252,-0.1218,-0.1079,-0.079,-0.0631,-0.0399,-0.0109,0.0253,0.0334,0.0608,0.0703,0.0831,0.0873,0.0974,0.092,0.1046,0.107,0.1059,0.113,0.0713,0.0943,0.0942,0.0941,0.0941,0.094,0,-0.1162,-0.1186,-0.1175,-0.1042,-0.0748,-0.0718,-0.037,-0.0144,0.0264,0.0524,0.0825,0.1134,0.1233,0.1221,0.1283,0.1376,0.1386,0.1424,0.1445,0.1511,0.1182,0.1152,0.1419,0.1419,0.1419,0.1419,0.1419,0.1419,-0.1158,-0.1168,-0.1164,-0.0729,-0.0544,-0.0102,0.014,0.0412,0.0641,0.1073,0.1297,0.1448,0.1537,0.1586,0.167,0.17,0.1849,0.1796,0.187,0.1636,0.1602,0.1569,0.1549,0.1895,0.1895,0.2217,0.222,0.2222]}],[{"header":{"parameterUnit":"m.s-1","parameterCategory":2,"la1":30.2991,"la2":30.254,"lo1":-89.0895,"lo2":-89.0444,"dy":0.0017,"dx":0.0017,"nx":28,"ny":28,"refTime":"2023-07-30T09:00:00:Z","depth":"2","parameterNumber":2,"parameterNumberName":"U-component_of_CURRENTS"},"data":[0,0,0,0,0,0,0,0,0,0,0,0,0,0,0,0,0,0,0,0,0,0,0,0,0,0,0,0,0,0,0,0,0,0,0,0,0,0,0,0,0,0,0,0,0,0,0,0,0,0,0,0,0,0,0,0,0,0,-0.2335,-0.2336,0,-0.2221,-0.2218,-0.2215,-0.2183,-0.2185,-0.2188,-0.219,-0.2263,-0.2262,-0.2262,0,0,0,0,0,0,0,0,0,0,0,0,0,-0.2231,-0.2233,-0.2335,-0.2336,-0.2337,-0.2222,-0.2218,-0.2214,-0.2182,-0.2185,-0.2189,-0.2192,-0.2263,-0.2262,-0.2262,0,0,0,0,0,0,0,0,0,0,0,0,0,-0.2192,-0.2233,-0.2335,-0.2323,-0.2322,-0.2222,-0.2218,-0.2213,-0.2181,-0.2185,-0.2189,-0.2193,-0.2263,-0.2262,-0.2262,-0.2177,0,0,-0.2259,-0.2259,0,0,0,0,0,0,0,0,-0.2194,-0.2193,-0.2324,-0.2324,-0.2323,-0.224,-0.2208,-0.2218,-0.218,-0.2211,-0.219,-0.2195,-0.2284,-0.2281,-0.2217,-0.218,-0.2183,-0.2259,-0.2258,-0.2258,-0.2258,0,0,0,0,0,0,0,-0.2198,-0.2196,-0.2268,-0.2325,-0.2325,-0.2224,-0.2222,-0.2206,-0.2213,-0.2209,-0.2212,-0.2233,-0.2282,-0.2217,-0.222,-0.2184,-0.2259,-0.2258,-0.2258,-0.2257,-0.2169,-0.2167,0,0,0,0,0,0,-0.2267,-0.2201,-0.2272,-0.2267,-0.2292,-0.2225,-0.2223,-0.2244,-0.2209,-0.2213,-0.223,-0.2232,-0.2217,-0.222,-0.2223,-0.223,-0.2258,-0.2257,-0.2257,-0.217,-0.2168,-0.2166,0,0,0,0,0,0,-0.2265,-0.2275,-0.2277,-0.2248,-0.2244,-0.2227,-0.2248,-0.2241,-0.2203,-0.2227,-0.223,-0.2208,-0.222,-0.2224,-0.2205,-0.2231,-0.2257,-0.2256,-0.2173,-0.217,-0.2167,-0.2178,0,0,0,0,0,0,-0.2262,-0.2274,-0.2288,-0.2253,-0.225,-0.2203,-0.2247,-0.2236,-0.2219,-0.2221,-0.2209,-0.2217,-0.2223,-0.2206,-0.2204,-0.223,-0.2256,-0.2175,-0.2171,-0.2168,-0.218,-0.2176,-0.2173,0,0,0,0,0,-0.2259,-0.2247,-0.2289,-0.2298,-0.2278,-0.2203,-0.2184,-0.2171,-0.2215,-0.2157,-0.217,-0.2219,-0.2184,-0.2202,-0.2201,-0.2228,-0.2177,-0.2172,-0.2168,-0.2182,-0.2177,-0.2173,0,0,0,0,0,0,-0.2195,-0.2245,-0.2289,-0.2294,-0.2262,-0.2206,-0.2165,-0.2173,-0.2124,-0.2154,-0.2177,-0.2181,-0.2178,-0.2178,-0.2198,-0.2185,-0.2195,-0.2191,-0.2206,-0.2201,-0.2198,-0.2236,-0.2255,0,0,0,0,0,-0.2202,-0.2212,-0.2231,-0.2227,-0.2222,-0.22,-0.2171,-0.2171,-0.2146,-0.2127,-0.2133,-0.2144,-0.2145,-0.2157,-0.2138,-0.2121,-0.2112,-0.2139,-0.2135,-0.2132,-0.2157,-0.215,-0.2149,-0.2152,-0.2152,-0.2152,0,0,-0.2183,-0.2209,-0.2219,-0.2215,-0.2193,-0.2184,-0.2183,-0.2144,-0.2155,-0.2148,-0.2143,-0.2124,-0.2131,-0.2113,-0.2115,-0.2131,-0.2109,-0.2127,-0.2125,-0.2152,-0.2145,-0.2146,-0.2146,-0.2149,-0.215,-0.215,0,0,-0.2136,-0.2169,-0.2168,-0.2154,-0.2156,-0.2145,-0.215,-0.2115,-0.2112,-0.2092,-0.2109,-0.21,-0.2085,-0.2093,-0.2104,-0.2063,-0.208,-0.2062,-0.2093,-0.2084,-0.2086,-0.2087,-0.2013,-0.2008,-0.2073,-0.2073,-0.2073,0,-0.2116,-0.214,-0.2138,-0.2138,-0.2148,-0.215,-0.2149,-0.2131,-0.2097,-0.2102,-0.2105,-0.2082,-0.2086,-0.2103,-0.2091,-0.2065,-0.2035,-0.212,-0.2085,-0.2086,-0.2087,-0.2012,-0.2007,-0.2073,-0.2073,-0.2073,-0.2073,0,-0.2081,-0.211,-0.2091,-0.2132,-0.2116,-0.2095,-0.2125,-0.2111,-0.2134,-0.2131,-0.2126,-0.2095,-0.2094,-0.2088,-0.2087,-0.2097,-0.2059,-0.2074,-0.211,-0.2089,-0.2008,-0.2002,-0.2073,-0.2073,-0.2073,-0.2073,0,0,-0.2022,-0.2068,-0.2066,-0.2103,-0.2123,-0.2104,-0.2137,-0.2145,-0.2176,-0.215,-0.2164,-0.2155,-0.2137,-0.2145,-0.2131,-0.213,-0.2087,-0.2113,-0.2112,-0.2063,-0.2016,-0.1904,-0.1886,-0.2102,-0.2103,-0.2103,-0.1936,0,-0.2,-0.202,-0.2046,-0.2072,-0.2091,-0.2122,-0.2147,-0.2166,-0.2173,-0.2172,-0.2176,-0.2166,-0.2165,-0.2153,-0.2156,-0.2104,-0.2081,-0.2128,-0.2025,-0.2021,-0.1947,-0.188,-0.176,-0.1596,-0.193,-0.1929,-0.1928,0,-0.1969,-0.1995,-0.2019,-0.2086,-0.2094,-0.2111,-0.2157,-0.2176,-0.2198,-0.2203,-0.2208,-0.2193,-0.2183,-0.2182,-0.2118,-0.2145,-0.2089,-0.2048,-0.2041,-0.1945,-0.1901,-0.1681,-0.1573,-0.1918,-0.1919,-0.1919,-0.192,0,-0.1931,-0.1979,-0.2005,-0.2024,-0.2088,-0.211,-0.214,-0.2175,-0.2182,-0.221,-0.2195,-0.2202,-0.2162,-0.2141,-0.2054,-0.2087,-0.1956,-0.1988,-0.1828,-0.1816,-0.17,-0.1678,-0.1948,-0.1948,-0.1949,-0.1949,-0.195,0,-0.1903,-0.1924,-0.1994,-0.2008,-0.2035,-0.2095,-0.2113,-0.2149,-0.2173,-0.2152,-0.2198,-0.2159,-0.2154,-0.2076,-0.2037,-0.1883,-0.1936,-0.1816,-0.1775,-0.1688,-0.1668,-0.196,-0.1964,-0.1943,-0.1944,-0.1945,-0.1947,0,-0.1848,-0.1897,-0.1926,-0.1996,-0.2016,-0.2031,-0.2076,-0.2075,-0.2126,-0.2095,-0.2095,-0.2091,-0.1987,-0.1941,-0.1853,-0.1809,-0.1714,-0.1649,-0.151,-0.1457,-0.1579,-0.1585,-0.1458,-0.1452,-0.1448,-0.1445,-0.1441,0,-0.1819,-0.1831,-0.1891,-0.1895,-0.1921,-0.1956,-0.196,-0.203,-0.2014,-0.203,-0.1983,-0.1911,-0.1835,-0.1657,-0.1541,-0.1409,-0.1531,-0.1247,-0.1312,-0.156,-0.1533,-0.1546,-0.1557,-0.1126,-0.112,-0.1116,-0.1112,0,-0.1747,-0.1765,-0.1785,-0.1781,-0.1789,-0.1792,-0.1805,-0.1805,-0.1856,-0.1859,-0.1814,-0.1777,-0.1588,-0.1397,-0.1223,-0.1148,-0.127,-0.1151,-0.1439,-0.1281,-0.1238,-0.1215,-0.1239,-0.1073,-0.1077,-0.108,-0.1082,-0.1084,-0.1668,-0.1654,-0.1653,-0.1632,-0.1625,-0.158,-0.1556,-0.1584,-0.1566,-0.1522,-0.1595,-0.149,-0.1424,-0.108,-0.0966,-0.0837,-0.0937,-0.0927,-0.0945,-0.0967,-0.0971,-0.0925,-0.0697,-0.0699,-0.07,-0.0701,-0.0703,0,-0.1539,-0.1516,-0.1495,-0.1447,-0.1359,-0.141,-0.1391,-0.1342,-0.1295,-0.1289,-0.1266,-0.1102,-0.0959,-0.0872,-0.0606,-0.055,-0.0588,-0.0537,-0.0618,-0.0654,-0.0687,-0.0684,-0.0329,-0.0329,-0.0328,-0.0328,0,0,-0.1466,-0.1379,-0.1351,-0.115,-0.1129,-0.0989,-0.0961,-0.0942,-0.0915,-0.0852,-0.0806,-0.0884,-0.0863,-0.0635,-0.0548,-0.0397,-0.0531,-0.0358,-0.065,-0.0781,-0.0814,-0.0889,-0.0919,0,0,0,0,0]},{"header":{"parameterUnit":"m.s-1","parameterCategory":2,"la1":30.2991,"la2":30.254,"lo1":-89.0895,"lo2":-89.0444,"dy":0.0017,"dx":0.0017,"nx":28,"ny":28,"refTime":"2023-07-30T09:00:00:Z","depth":"2","parameterNumber":3,"parameterNumberName":"V-component_of_CURRENTS"},"data":[0,0,0,0,0,0,0,0,0,0,0,0,0,0,0,0,0,0,0,0,0,0,0,0,0,0,0,0,0,0,0,0,0,0,0,0,0,0,0,0,0,0,0,0,0,0,0,0,0,0,0,0,0,0,0,0,0,0,-0.0462,-0.046,0,-0.0372,-0.0372,-0.0371,-0.0321,-0.032,-0.0319,-0.0319,-0.0161,-0.0158,-0.0155,0,0,0,0,0,0,0,0,0,0,0,0,0,-0.0566,-0.0565,-0.0462,-0.046,-0.0458,-0.0372,-0.0371,-0.0371,-0.0321,-0.032,-0.0319,-0.0318,-0.0163,-0.0159,-0.0154,0,0,0,0,0,0,0,0,0,0,0,0,0,-0.051,-0.0565,-0.0462,-0.0417,-0.0412,-0.0372,-0.0371,-0.0371,-0.0321,-0.032,-0.0319,-0.0318,-0.0164,-0.0159,-0.0154,-0.0148,0,0,-0.0138,-0.0136,0,0,0,0,0,0,0,0,-0.0513,-0.0507,-0.0426,-0.042,-0.0414,-0.035,-0.035,-0.029,-0.0322,-0.0364,-0.0319,-0.0317,-0.0214,-0.0205,-0.0202,-0.014,-0.0133,-0.0138,-0.0135,-0.0133,-0.0131,0,0,0,0,0,0,0,-0.0517,-0.051,-0.0434,-0.0424,-0.0417,-0.0393,-0.0385,-0.0339,-0.0302,-0.036,-0.0354,-0.0333,-0.0211,-0.0208,-0.0198,-0.0131,-0.0138,-0.0133,-0.013,-0.0128,0.0016,0.0017,0,0,0,0,0,0,-0.0516,-0.0514,-0.0437,-0.043,-0.0453,-0.0392,-0.0383,-0.0378,-0.0303,-0.0289,-0.0334,-0.0331,-0.0217,-0.0204,-0.0192,-0.0128,-0.0133,-0.0128,-0.0125,0.0015,0.0016,0.0017,0,0,0,0,0,0,-0.0519,-0.0511,-0.044,-0.0463,-0.0452,-0.0391,-0.0386,-0.0377,-0.0356,-0.0283,-0.0269,-0.032,-0.0216,-0.0199,-0.0146,-0.0123,-0.0126,-0.0121,0.0014,0.0016,0.0017,-0.0033,0,0,0,0,0,0,-0.0523,-0.0513,-0.0516,-0.0464,-0.045,-0.041,-0.0386,-0.0375,-0.0342,-0.0337,-0.0267,-0.0252,-0.0213,-0.0155,-0.0142,-0.0116,-0.0117,0.0014,0.0015,0.0016,-0.0032,-0.0034,-0.0035,0,0,0,0,0,-0.0527,-0.0528,-0.0518,-0.0507,-0.0455,-0.0409,-0.0401,-0.0357,-0.0343,-0.0336,-0.0291,-0.0253,-0.0135,-0.0151,-0.0135,-0.0108,0.0013,0.0015,0.0016,-0.0032,-0.0033,-0.0035,0,0,0,0,0,0,-0.0571,-0.0521,-0.0508,-0.0494,-0.0452,-0.0397,-0.0386,-0.0356,-0.032,-0.0312,-0.0253,-0.0235,-0.0178,-0.0138,-0.0157,-0.0061,-0.0051,-0.0046,-0.0092,-0.0093,-0.0095,-0.0107,-0.0113,0,0,0,0,0,-0.0584,-0.0575,-0.0519,-0.0508,-0.0492,-0.0443,-0.042,-0.0386,-0.034,-0.0323,-0.0275,-0.0217,-0.0163,-0.0126,-0.0078,-0.0031,0.0005,0.0001,-0.0,-0.0002,-0.0001,0.0056,0.006,0.0023,0.0023,0.0023,0,0,-0.0594,-0.0567,-0.056,-0.0517,-0.0489,-0.0462,-0.0428,-0.0389,-0.0361,-0.031,-0.027,-0.0224,-0.0153,-0.0101,-0.007,-0.0062,0.0028,0.0,-0.0002,0.0001,0.0058,0.0062,0.0065,0.0024,0.0024,0.0024,0,0,-0.0605,-0.0593,-0.0586,-0.0556,-0.0504,-0.0473,-0.046,-0.0404,-0.0377,-0.0332,-0.0285,-0.0229,-0.0152,-0.0098,-0.0058,-0.0035,0.0014,-0.0012,-0.0021,0.0033,0.0036,0.004,0.0085,0.0093,-0.0007,-0.0007,-0.0007,0,-0.0619,-0.0608,-0.0575,-0.0558,-0.0533,-0.0479,-0.046,-0.0426,-0.0357,-0.0335,-0.032,-0.0207,-0.0148,-0.0073,-0.0063,-0.0036,-0.0005,-0.0026,0.003,0.0034,0.0038,0.0084,0.0094,-0.0009,-0.0009,-0.0009,-0.0009,0,-0.0619,-0.061,-0.0604,-0.0571,-0.0542,-0.0517,-0.0459,-0.0434,-0.0397,-0.0354,-0.0285,-0.0216,-0.0149,-0.0112,-0.0078,-0.0012,-0.0,0.0013,0.0027,0.0038,0.0087,0.0097,-0.0012,-0.0012,-0.0011,-0.001,0,0,-0.0642,-0.0613,-0.0609,-0.0608,-0.0547,-0.0528,-0.0487,-0.0436,-0.0413,-0.0345,-0.0308,-0.0209,-0.0177,-0.0131,-0.0077,-0.0019,0.0039,0.0006,0.001,0.0039,0.0153,0.0166,0.0179,0.0057,0.0058,0.006,0.0173,0,-0.0652,-0.0648,-0.0614,-0.0603,-0.0601,-0.0546,-0.0517,-0.0461,-0.0412,-0.0366,-0.0279,-0.0223,-0.0181,-0.0151,-0.0088,0.0007,0.0065,0.0007,0.0149,0.0153,0.0154,0.0191,0.0169,0.0269,0.0184,0.0185,0.0187,0,-0.066,-0.0661,-0.0664,-0.0644,-0.0636,-0.0618,-0.0577,-0.0538,-0.0454,-0.0414,-0.0343,-0.0277,-0.0178,-0.0152,0.0011,-0.0031,0.0054,0.0129,0.0135,0.0173,0.0186,0.0247,0.0292,0.0204,0.0203,0.0202,0.02,0,-0.0717,-0.0694,-0.0709,-0.0699,-0.0662,-0.0657,-0.0633,-0.0562,-0.0523,-0.0449,-0.0405,-0.0299,-0.0226,-0.0117,0.0036,0.0023,0.0214,0.0215,0.031,0.0312,0.0336,0.0337,0.0329,0.0329,0.0329,0.0328,0.0328,0,-0.0749,-0.076,-0.0747,-0.0758,-0.0771,-0.0721,-0.0711,-0.0671,-0.059,-0.0542,-0.0443,-0.0365,-0.0212,-0.0081,0.0031,0.0206,0.0211,0.032,0.0349,0.0318,0.0316,0.0292,0.0286,0.0332,0.0332,0.0331,0.033,0,-0.0811,-0.0798,-0.0824,-0.081,-0.0805,-0.082,-0.0766,-0.0747,-0.0667,-0.0599,-0.0572,-0.0395,-0.0224,-0.0067,0.0134,0.0217,0.0367,0.0427,0.0376,0.0396,0.0427,0.0417,0.0539,0.0541,0.0542,0.0543,0.0544,0,-0.0845,-0.0865,-0.0881,-0.0895,-0.0894,-0.0895,-0.0885,-0.0807,-0.0773,-0.0608,-0.0574,-0.0379,-0.0228,0.007,0.0247,0.0442,0.0437,0.0518,0.0494,0.0436,0.0452,0.044,0.0429,0.0509,0.0509,0.051,0.051,0,-0.0906,-0.0916,-0.0939,-0.0973,-0.0982,-0.0983,-0.0963,-0.0941,-0.0835,-0.0751,-0.0579,-0.0433,-0.0113,0.0123,0.0363,0.0466,0.0477,0.0534,0.0513,0.0448,0.0414,0.0427,0.0416,0.0514,0.0514,0.0514,0.0514,0.0513,-0.095,-0.0988,-0.1013,-0.1039,-0.1053,-0.1064,-0.1052,-0.1006,-0.0941,-0.0779,-0.0638,-0.0383,-0.0137,0.0236,0.0408,0.0569,0.0566,0.0585,0.0581,0.0577,0.0543,0.0512,0.0624,0.0624,0.0624,0.0625,0.0625,0,-0.099,-0.1021,-0.1063,-0.1093,-0.1107,-0.1102,-0.1081,-0.1032,-0.0956,-0.0789,-0.0616,-0.0333,-0.0057,0.0221,0.0493,0.0629,0.061,0.0634,0.0584,0.0579,0.0575,0.0538,0.062,0.062,0.0621,0.0621,0,0,-0.101,-0.106,-0.1081,-0.1117,-0.1131,-0.1121,-0.1105,-0.1029,-0.0901,-0.0725,-0.0531,-0.0335,0.0001,0.0164,0.0348,0.0511,0.0499,0.0513,0.0502,0.0416,0.041,0.0534,0.047,0,0,0,0,0]}],[{"header":{"parameterUnit":"m.s-1","parameterCategory":2,"la1":30.2991,"la2":30.254,"lo1":-89.0895,"lo2":-89.0444,"dy":0.0017,"dx":0.0017,"nx":28,"ny":28,"refTime":"2023-07-30T09:00:00:Z","depth":"4","parameterNumber":2,"parameterNumberName":"U-component_of_CURRENTS"},"data":[0,0,0,0,0,0,0,0,0,0,0,0,0,0,0,0,0,0,0,0,0,0,0,0,0,0,0,0,0,0,0,0,0,0,0,0,0,0,0,0,0,0,0,0,0,0,0,0,0,0,0,0,0,0,0,0,0,0,-0.1369,-0.1369,0,-0.1389,-0.1389,-0.139,-0.1419,-0.1419,-0.142,-0.142,-0.144,-0.1441,-0.1441,0,0,0,0,0,0,0,0,0,0,0,0,0,-0.1356,-0.1356,-0.1369,-0.1369,-0.1369,-0.1389,-0.1389,-0.139,-0.1419,-0.1419,-0.142,-0.142,-0.144,-0.1441,-0.1441,0,0,0,0,0,0,0,0,0,0,0,0,0,-0.137,-0.1356,-0.1369,-0.1384,-0.1386,-0.1389,-0.139,-0.139,-0.1419,-0.1419,-0.142,-0.142,-0.144,-0.1441,-0.1441,-0.1434,0,0,-0.1442,-0.1442,0,0,0,0,0,0,0,0,-0.1369,-0.137,-0.1382,-0.1383,-0.1385,-0.14,-0.1392,-0.1404,-0.1419,-0.1409,-0.142,-0.1421,-0.1425,-0.1427,-0.1433,-0.1435,-0.1436,-0.1442,-0.1442,-0.1443,-0.1443,0,0,0,0,0,0,0,-0.1368,-0.137,-0.1379,-0.1382,-0.1384,-0.139,-0.1393,-0.1395,-0.1416,-0.141,-0.1411,-0.141,-0.1426,-0.1432,-0.1433,-0.1436,-0.1442,-0.1443,-0.1443,-0.1443,-0.1493,-0.1494,0,0,0,0,0,0,-0.136,-0.1369,-0.1379,-0.138,-0.1375,-0.139,-0.1393,-0.1397,-0.1416,-0.1419,-0.1409,-0.1411,-0.1431,-0.1433,-0.1434,-0.149,-0.1443,-0.1443,-0.1443,-0.1492,-0.1493,-0.1494,0,0,0,0,0,0,-0.136,-0.1361,-0.1378,-0.1372,-0.1375,-0.1389,-0.1393,-0.1397,-0.1426,-0.1415,-0.1419,-0.1438,-0.1432,-0.1434,-0.1454,-0.1489,-0.1443,-0.1444,-0.149,-0.1492,-0.1494,-0.1562,0,0,0,0,0,0,-0.136,-0.1361,-0.1376,-0.1372,-0.1375,-0.1386,-0.1393,-0.1397,-0.1422,-0.1425,-0.144,-0.1441,-0.1432,-0.1453,-0.1454,-0.1488,-0.1444,-0.1489,-0.1491,-0.1493,-0.1558,-0.1566,-0.1572,0,0,0,0,0,-0.1359,-0.1367,-0.1376,-0.1378,-0.139,-0.1386,-0.1389,-0.1402,-0.1423,-0.1433,-0.1449,-0.1442,-0.1467,-0.1454,-0.1455,-0.1491,-0.1488,-0.1491,-0.1493,-0.1555,-0.1564,-0.1572,0,0,0,0,0,0,-0.1371,-0.1371,-0.1381,-0.139,-0.1393,-0.139,-0.1402,-0.1417,-0.1439,-0.1452,-0.1452,-0.1454,-0.1485,-0.1475,-0.1461,-0.151,-0.1478,-0.1481,-0.1525,-0.1534,-0.154,-0.1537,-0.1444,0,0,0,0,0,-0.138,-0.1387,-0.1385,-0.1396,-0.1398,-0.1409,-0.1417,-0.1426,-0.1436,-0.1449,-0.1461,-0.1475,-0.1492,-0.1503,-0.1506,-0.1532,-0.15,-0.1556,-0.1563,-0.1569,-0.1566,-0.1553,-0.1558,-0.1502,-0.1502,-0.1502,0,0,-0.1386,-0.1388,-0.1394,-0.14,-0.1405,-0.1423,-0.1416,-0.1429,-0.146,-0.1446,-0.1495,-0.1498,-0.1502,-0.1532,-0.1546,-0.1532,-0.1566,-0.1572,-0.1577,-0.1571,-0.1556,-0.1561,-0.1566,-0.1504,-0.1504,-0.1503,0,0,-0.1397,-0.1406,-0.1417,-0.1423,-0.1433,-0.1441,-0.1452,-0.1464,-0.1485,-0.1519,-0.1525,-0.1546,-0.1571,-0.158,-0.1589,-0.1635,-0.16,-0.1645,-0.1682,-0.167,-0.1675,-0.1678,-0.1634,-0.1633,-0.1652,-0.1652,-0.1652,0,-0.1411,-0.1425,-0.142,-0.1435,-0.145,-0.1457,-0.1482,-0.1502,-0.1525,-0.1541,-0.1543,-0.1589,-0.1594,-0.1634,-0.1654,-0.1652,-0.1626,-0.1653,-0.1679,-0.1682,-0.1684,-0.1638,-0.1636,-0.1656,-0.1655,-0.1655,-0.1655,0,-0.1424,-0.1449,-0.1453,-0.1483,-0.1499,-0.1514,-0.1536,-0.1564,-0.1595,-0.161,-0.1651,-0.1655,-0.1677,-0.1694,-0.1693,-0.1723,-0.1692,-0.1686,-0.1657,-0.1694,-0.1643,-0.164,-0.1661,-0.166,-0.1658,-0.1658,0,0,-0.1417,-0.1458,-0.1464,-0.1491,-0.1527,-0.1538,-0.1591,-0.1627,-0.1662,-0.1687,-0.1722,-0.1761,-0.1754,-0.1763,-0.1765,-0.1765,-0.1761,-0.174,-0.1738,-0.1695,-0.1711,-0.1578,-0.156,-0.1763,-0.1763,-0.1764,-0.1665,0,-0.1434,-0.1476,-0.1496,-0.1551,-0.1574,-0.1604,-0.1651,-0.1687,-0.1715,-0.1744,-0.1757,-0.1785,-0.1785,-0.1798,-0.18,-0.1767,-0.1757,-0.1787,-0.1684,-0.168,-0.1556,-0.1554,-0.1764,-0.1662,-0.1661,-0.1661,-0.166,0,-0.1435,-0.1467,-0.1522,-0.1587,-0.1601,-0.1644,-0.1708,-0.1747,-0.1785,-0.1804,-0.1827,-0.1825,-0.1836,-0.1828,-0.1788,-0.1806,-0.1767,-0.1737,-0.1732,-0.158,-0.154,-0.162,-0.1653,-0.1654,-0.1654,-0.1655,-0.1655,0,-0.1415,-0.1484,-0.1534,-0.1554,-0.1628,-0.1669,-0.1715,-0.1766,-0.1784,-0.1835,-0.1834,-0.1855,-0.1835,-0.1817,-0.175,-0.1775,-0.1676,-0.1698,-0.1538,-0.1527,-0.1649,-0.1646,-0.1667,-0.1667,-0.1667,-0.1668,-0.1668,0,-0.1404,-0.1446,-0.1534,-0.1555,-0.1613,-0.1674,-0.1726,-0.1771,-0.1811,-0.1794,-0.1857,-0.1823,-0.1831,-0.177,-0.1741,-0.1599,-0.1662,-0.1528,-0.1492,-0.1678,-0.168,-0.1645,-0.1643,-0.1664,-0.1665,-0.1666,-0.1666,0,-0.1359,-0.142,-0.1474,-0.1568,-0.16,-0.1639,-0.171,-0.172,-0.1788,-0.1762,-0.1771,-0.1778,-0.1691,-0.1666,-0.1597,-0.1542,-0.1459,-0.1399,-0.1564,-0.1542,-0.1325,-0.1329,-0.1218,-0.1212,-0.1207,-0.1203,-0.12,0,-0.1336,-0.1362,-0.1461,-0.148,-0.1524,-0.159,-0.1606,-0.1691,-0.1677,-0.1698,-0.1647,-0.1604,-0.1581,-0.1375,-0.1387,-0.1299,-0.129,-0.1248,-0.1327,-0.1302,-0.1279,-0.129,-0.13,-0.1193,-0.1191,-0.119,-0.1189,0,-0.128,-0.1325,-0.1363,-0.1388,-0.1419,-0.1441,-0.1471,-0.1458,-0.1505,-0.1583,-0.1479,-0.1429,-0.1313,-0.1261,-0.1182,-0.1137,-0.1285,-0.12,-0.1211,-0.1284,-0.127,-0.1255,-0.127,-0.1173,-0.1175,-0.1177,-0.1177,0,-0.1229,-0.1229,-0.1257,-0.1263,-0.1288,-0.1244,-0.1307,-0.1273,-0.128,-0.1323,-0.1273,-0.1249,-0.127,-0.117,-0.1105,-0.1036,-0.1039,-0.1035,-0.1055,-0.1073,-0.1072,-0.1037,-0.0819,0,0,0,0,0,-0.1159,-0.1119,-0.1117,-0.1101,-0.1115,-0.1114,-0.1165,-0.1225,-0.1284,-0.1166,-0.1222,-0.1119,-0.1026,-0.1035,-0.0928,-0.1026,-0.1035,-0.09,-0.1041,-0.1082,-0.1101,-0.1114,0,0,0,0,0,0,-0.1099,-0.1094,-0.1061,-0.0933,-0.0897,-0.0879,-0.0907,-0.0972,-0.0931,-0.1016,-0.0973,-0.1042,-0.0969,-0.1042,-0.0896,-0.0893,-0.0958,-0.0907,-0.0904,-0.1071,-0.1089,-0.1104,-0.1124,0,0,0,0,0]},{"header":{"parameterUnit":"m.s-1","parameterCategory":2,"la1":30.2991,"la2":30.254,"lo1":-89.0895,"lo2":-89.0444,"dy":0.0017,"dx":0.0017,"nx":28,"ny":28,"refTime":"2023-07-30T09:00:00:Z","depth":"4","parameterNumber":3,"parameterNumberName":"V-component_of_CURRENTS"},"data":[0,0,0,0,0,0,0,0,0,0,0,0,0,0,0,0,0,0,0,0,0,0,0,0,0,0,0,0,0,0,0,0,0,0,0,0,0,0,0,0,0,0,0,0,0,0,0,0,0,0,0,0,0,0,0,0,0,0,-0.0329,-0.0329,0,-0.029,-0.0289,-0.0289,-0.0278,-0.0278,-0.0278,-0.0278,-0.0204,-0.0202,-0.02,0,0,0,0,0,0,0,0,0,0,0,0,0,-0.0366,-0.0365,-0.0329,-0.0329,-0.0328,-0.029,-0.0289,-0.0289,-0.0277,-0.0278,-0.0278,-0.0278,-0.0205,-0.0202,-0.02,0,0,0,0,0,0,0,0,0,0,0,0,0,-0.0342,-0.0365,-0.0329,-0.0317,-0.0315,-0.029,-0.0289,-0.0289,-0.0277,-0.0278,-0.0278,-0.0278,-0.0205,-0.0202,-0.0199,-0.0178,0,0,-0.019,-0.0189,0,0,0,0,0,0,0,0,-0.0343,-0.0341,-0.0319,-0.0318,-0.0316,-0.0287,-0.0275,-0.0249,-0.0277,-0.0293,-0.0278,-0.0278,-0.0228,-0.0223,-0.0218,-0.0175,-0.0171,-0.019,-0.0188,-0.0187,-0.0186,0,0,0,0,0,0,0,-0.0345,-0.0342,-0.0315,-0.0319,-0.0316,-0.0303,-0.03,-0.027,-0.0261,-0.0292,-0.0291,-0.0284,-0.0227,-0.0221,-0.0216,-0.017,-0.019,-0.0187,-0.0185,-0.0184,-0.0099,-0.0099,0,0,0,0,0,0,-0.0348,-0.0344,-0.0316,-0.0314,-0.0328,-0.0302,-0.0299,-0.0298,-0.0262,-0.0256,-0.0284,-0.0283,-0.0226,-0.0219,-0.0213,-0.0169,-0.0187,-0.0184,-0.0182,-0.01,-0.0099,-0.0099,0,0,0,0,0,0,-0.0349,-0.0346,-0.0318,-0.0326,-0.0322,-0.0301,-0.03,-0.0297,-0.029,-0.0256,-0.025,-0.028,-0.0226,-0.0217,-0.0189,-0.0166,-0.0182,-0.018,-0.01,-0.0099,-0.0099,-0.0091,0,0,0,0,0,0,-0.0351,-0.0347,-0.0351,-0.0327,-0.0321,-0.0309,-0.0299,-0.0296,-0.0285,-0.0284,-0.025,-0.0244,-0.0225,-0.0194,-0.0186,-0.0162,-0.0177,-0.0101,-0.01,-0.0099,-0.0092,-0.009,-0.0089,0,0,0,0,0,-0.0352,-0.0358,-0.0352,-0.0349,-0.0327,-0.0309,-0.0305,-0.0291,-0.0284,-0.0285,-0.0261,-0.0245,-0.0184,-0.0192,-0.0182,-0.0157,-0.0101,-0.01,-0.0099,-0.0092,-0.009,-0.0089,0,0,0,0,0,0,-0.0378,-0.0356,-0.035,-0.0349,-0.0332,-0.0306,-0.0309,-0.0291,-0.0273,-0.027,-0.024,-0.0232,-0.0198,-0.0183,-0.0192,-0.0132,-0.0139,-0.0136,-0.0137,-0.0135,-0.0133,-0.0138,-0.0175,0,0,0,0,0,-0.0385,-0.0383,-0.0358,-0.0359,-0.0355,-0.0331,-0.0322,-0.0306,-0.0284,-0.0277,-0.0254,-0.0223,-0.0187,-0.0167,-0.0142,-0.0108,-0.0089,-0.0086,-0.0085,-0.0083,-0.0082,-0.0031,-0.0024,-0.0096,-0.0096,-0.0096,0,0,-0.0393,-0.0382,-0.0381,-0.0364,-0.0355,-0.034,-0.0327,-0.0314,-0.0292,-0.0269,-0.0245,-0.0219,-0.0179,-0.0142,-0.0125,-0.0126,-0.0056,-0.0082,-0.0081,-0.008,-0.0029,-0.0022,-0.0016,-0.0095,-0.0095,-0.0095,0,0,-0.0406,-0.0404,-0.0404,-0.0389,-0.0369,-0.0351,-0.0347,-0.032,-0.0305,-0.0275,-0.0247,-0.0208,-0.017,-0.0126,-0.0099,-0.0072,-0.0053,-0.0069,-0.0056,-0.0007,-0.0001,0.0005,0.0028,0.0036,-0.0064,-0.0064,-0.0063,0,-0.0418,-0.0412,-0.0402,-0.0393,-0.0381,-0.0356,-0.0345,-0.0321,-0.0285,-0.0267,-0.027,-0.0192,-0.0155,-0.0086,-0.0076,-0.0065,-0.0051,-0.0065,-0.0004,0.0002,0.0008,0.003,0.0039,-0.0063,-0.0063,-0.0063,-0.0063,0,-0.0421,-0.0416,-0.0418,-0.0398,-0.0384,-0.0373,-0.0336,-0.032,-0.03,-0.0268,-0.0216,-0.0169,-0.0124,-0.0097,-0.0075,-0.0009,-0.0019,-0.0011,-0.0008,0.0016,0.0037,0.0046,-0.0062,-0.0062,-0.0063,-0.0063,0,0,-0.0445,-0.0425,-0.0424,-0.0422,-0.0384,-0.0377,-0.0341,-0.0304,-0.0285,-0.024,-0.0209,-0.0127,-0.0109,-0.0077,-0.0039,0.0014,0.0075,0.0017,0.0019,0.004,0.0161,0.0134,0.0141,0.009,0.0091,0.0093,0.0155,0,-0.0451,-0.0449,-0.0425,-0.0416,-0.0414,-0.0378,-0.0352,-0.031,-0.0278,-0.0246,-0.0172,-0.0135,-0.0097,-0.0081,-0.0016,0.0044,0.0099,0.0055,0.0134,0.0136,0.0111,0.0152,0.0099,0.0162,0.0164,0.0166,0.0167,0,-0.0457,-0.0456,-0.0457,-0.0438,-0.0435,-0.0424,-0.0394,-0.0363,-0.0297,-0.0271,-0.0209,-0.0166,-0.0077,-0.0059,0.0074,0.0038,0.0102,0.0153,0.0157,0.0136,0.0127,0.0136,0.0183,0.0182,0.0181,0.018,0.0179,0,-0.0494,-0.0477,-0.0487,-0.0478,-0.0451,-0.0449,-0.0435,-0.038,-0.0358,-0.0296,-0.0275,-0.0173,-0.0128,-0.003,0.008,0.0074,0.0215,0.0219,0.026,0.0257,0.0257,0.0251,0.0323,0.0322,0.0322,0.0322,0.0322,0,-0.0507,-0.0516,-0.0515,-0.0522,-0.0538,-0.0499,-0.0503,-0.047,-0.0417,-0.0394,-0.0302,-0.0257,-0.0117,-0.002,0.0074,0.0189,0.0213,0.027,0.0281,0.0256,0.0249,0.0263,0.0255,0.0324,0.0324,0.0323,0.0323,0,-0.0544,-0.0538,-0.0562,-0.0558,-0.0561,-0.0581,-0.0564,-0.056,-0.0501,-0.0468,-0.045,-0.0313,-0.0187,-0.0048,0.0113,0.0175,0.0287,0.0327,0.0277,0.0282,0.0294,0.0286,0.0369,0.0369,0.0369,0.0369,0.0369,0,-0.0561,-0.0578,-0.0612,-0.0638,-0.0645,-0.0663,-0.0673,-0.062,-0.0606,-0.0501,-0.0485,-0.0347,-0.0251,-0.0046,0.0102,0.0275,0.0305,0.0344,0.0341,0.0301,0.0304,0.0296,0.0288,0.0368,0.0368,0.0368,0.0368,0,-0.0598,-0.0623,-0.0648,-0.0707,-0.0739,-0.0759,-0.0764,-0.0749,-0.0679,-0.0628,-0.0516,-0.0385,-0.0233,-0.0058,0.0083,0.021,0.0303,0.0343,0.0344,0.0341,0.0301,0.0302,0.0295,0.0367,0.0368,0.0368,0.0368,0,-0.0637,-0.0675,-0.0719,-0.0762,-0.081,-0.0831,-0.0826,-0.0788,-0.0752,-0.0626,-0.0594,-0.0406,-0.0291,-0.009,0.0039,0.016,0.019,0.0206,0.0215,0.0217,0.0157,0.0083,0.0101,0,0,0,0,0,-0.0664,-0.0705,-0.0762,-0.0806,-0.0853,-0.0869,-0.087,-0.0846,-0.0776,-0.0716,-0.0648,-0.0507,-0.0279,-0.016,-0.0044,0.0033,0.0205,0.017,0.0225,0.0364,0.0365,0.0319,0,0,0,0,0,0,-0.0683,-0.0745,-0.077,-0.0828,-0.0857,-0.0896,-0.0896,-0.0851,-0.08,-0.0718,-0.0591,-0.0506,-0.0277,-0.0349,-0.0049,-0.0005,0.0037,0.029,0.0291,0.0364,0.0364,0.0365,0.0318,0,0,0,0,0]}]]